Time,TemperatureF,DewpointF,PressureIn,WindDirection,WindDirectionDegrees,WindSpeedMPH,WindSpeedGustMPH,Humidity,HourlyPrecipIn,Conditions,Clouds,dailyrainin,SoftwareType,DateUTC
2013-05-08 00:02:00,55.5,50.7,30.03,SE,145,3.5,3.5,84,0.00,CLR,,0.00,WeatherDisplay:10.37,2013-05-08 07:02:00,
2013-05-08 00:07:00,55.3,50.9,30.03,SE,124,3.5,3.5,85,0.00,CLR,,0.00,WeatherDisplay:10.37,2013-05-08 07:07:00,
2013-05-08 00:12:00,55.1,50.7,30.03,South,176,3.5,3.5,85,0.00,CLR,,0.00,WeatherDisplay:10.37,2013-05-08 07:12:00,
2013-05-08 00:17:00,54.9,50.8,30.03,SSE,160,5.8,5.8,86,0.00,CLR,,0.00,WeatherDisplay:10.37,2013-05-08 07:17:00,
2013-05-08 00:22:00,54.7,50.6,30.03,South,176,5.8,5.8,86,0.00,CLR,,0.00,WeatherDisplay:10.37,2013-05-08 07:22:00,
2013-05-08 00:27:00,54.6,50.5,30.03,SSE,163,3.5,3.5,86,0.00,CLR,,0.00,WeatherDisplay:10.37,2013-05-08 07:27:00,
2013-05-08 00:32:00,54.4,50.3,30.03,SSE,165,3.5,3.5,86,0.00,CLR,,0.00,WeatherDisplay:10.37,2013-05-08 07:32:00,
2013-05-08 00:37:00,54.3,50.5,30.03,SSE,158,3.5,3.5,87,0.00,CLR,,0.00,WeatherDisplay:10.37,2013-05-08 07:37:00,
2013-05-08 00:42:00,54.2,50.4,30.03,SSE,156,3.5,3.5,87,0.00,CLR,,0.00,WeatherDisplay:10.37,2013-05-08 07:42:00,
2013-05-08 00:47:00,54.1,50.3,30.03,South,170,2.3,2.3,87,0.00,CLR,,0.00,WeatherDisplay:10.37,2013-05-08 07:47:00,
2013-05-08 00:52:00,54.0,50.2,30.03,SSE,162,3.5,3.5,87,0.00,CLR,,0.00,WeatherDisplay:10.37,2013-05-08 07:52:00,
2013-05-08 00:57:00,53.9,50.4,30.03,WSW,243,1.1,1.1,88,0.00,CLR,,0.00,WeatherDisplay:10.37,2013-05-08 07:57:00,
2013-05-08 01:02:00,53.7,50.2,30.03,WSW,242,2.3,2.3,88,0.00,CLR,,0.00,WeatherDisplay:10.37,2013-05-08 08:02:00,
2013-05-08 01:07:00,53.6,50.1,30.03,SW,216,1.1,1.1,88,0.00,CLR,,0.00,WeatherDisplay:10.37,2013-05-08 08:07:00,
2013-05-08 01:12:00,53.4,49.9,30.03,SSE,163,0.0,0.0,88,0.00,CLR,,0.00,WeatherDisplay:10.37,2013-05-08 08:12:00,
2013-05-08 01:17:00,53.1,49.6,30.03,SSE,165,0.0,0.0,88,0.00,CLR,,0.00,WeatherDisplay:10.37,2013-05-08 08:17:00,
2013-05-08 01:22:00,52.7,49.2,30.04,SSE,165,0.0,0.0,88,0.00,CLR,,0.00,WeatherDisplay:10.37,2013-05-08 08:22:00,
2013-05-08 01:27:00,52.5,49.4,30.03,SW,226,1.1,1.1,89,0.00,CLR,,0.00,WeatherDisplay:10.37,2013-05-08 08:27:00,
2013-05-08 01:32:00,52.5,49.4,30.03,SW,236,1.1,1.1,89,0.00,CLR,,0.00,WeatherDisplay:10.37,2013-05-08 08:32:00,
2013-05-08 01:37:00,52.5,49.4,30.03,SW,236,0.0,0.0,89,0.00,CLR,,0.00,WeatherDisplay:10.37,2013-05-08 08:37:00,
2013-05-08 01:42:00,52.4,49.3,30.03,SSW,205,0.0,0.0,89,0.00,CLR,,0.00,WeatherDisplay:10.37,2013-05-08 08:42:00,
2013-05-08 01:47:00,52.3,49.2,30.04,SSW,205,0.0,0.0,89,0.00,CLR,,0.00,WeatherDisplay:10.37,2013-05-08 08:47:00,
2013-05-08 01:52:00,52.0,48.9,30.04,SSW,205,0.0,0.0,89,0.00,CLR,,0.00,WeatherDisplay:10.37,2013-05-08 08:52:00,
2013-05-08 01:57:00,51.6,48.5,30.04,SSW,205,0.0,0.0,89,0.00,CLR,,0.00,WeatherDisplay:10.37,2013-05-08 08:57:00,
2013-05-08 02:02:00,51.3,48.2,30.04,SSW,205,0.0,0.0,89,0.00,CLR,,0.00,WeatherDisplay:10.37,2013-05-08 09:02:00,
2013-05-08 02:07:00,51.1,48.3,30.04,SSW,206,0.0,0.0,90,0.00,CLR,,0.00,WeatherDisplay:10.37,2013-05-08 09:07:00,
2013-05-08 02:12:00,51.1,48.6,30.03,SSW,205,0.0,0.0,91,0.00,CLR,,0.00,WeatherDisplay:10.37,2013-05-08 09:12:00,
2013-05-08 02:17:00,51.0,48.2,30.03,SSE,150,0.0,0.0,90,0.00,CLR,,0.00,WeatherDisplay:10.37,2013-05-08 09:17:00,
2013-05-08 02:22:00,50.7,48.2,30.03,SSE,150,0.0,0.0,91,0.00,CLR,,0.00,WeatherDisplay:10.37,2013-05-08 09:22:00,
2013-05-08 02:27:00,50.7,48.2,30.03,SSE,150,0.0,0.0,91,0.00,CLR,,0.00,WeatherDisplay:10.37,2013-05-08 09:27:00,
2013-05-08 02:32:00,50.6,48.1,30.04,SSE,150,0.0,0.0,91,0.00,CLR,,0.00,WeatherDisplay:10.37,2013-05-08 09:32:00,
2013-05-08 02:37:00,50.6,48.1,30.03,SSE,150,0.0,0.0,91,0.00,CLR,,0.00,WeatherDisplay:10.37,2013-05-08 09:37:00,
2013-05-08 02:42:00,50.6,48.1,30.04,SSE,151,0.0,0.0,91,0.00,CLR,,0.00,WeatherDisplay:10.37,2013-05-08 09:42:00,
2013-05-08 02:47:00,50.7,48.5,30.04,SSE,150,0.0,0.0,92,0.00,CLR,,0.00,WeatherDisplay:10.37,2013-05-08 09:47:00,
2013-05-08 02:52:00,51.0,48.8,30.04,SSE,150,0.0,0.0,92,0.00,CLR,,0.00,WeatherDisplay:10.37,2013-05-08 09:52:00,
2013-05-08 02:57:00,51.2,49.0,30.04,South,169,2.3,2.3,92,0.00,CLR,,0.00,WeatherDisplay:10.37,2013-05-08 09:57:00,
2013-05-08 03:02:00,51.5,49.3,30.04,SSE,159,1.1,1.1,92,0.00,CLR,,0.00,WeatherDisplay:10.37,2013-05-08 10:02:00,
2013-05-08 03:07:00,51.7,49.5,30.04,South,169,2.3,2.3,92,0.00,CLR,,0.00,WeatherDisplay:10.37,2013-05-08 10:07:00,
2013-05-08 03:12:00,51.9,49.6,30.04,South,183,2.3,2.3,92,0.00,CLR,,0.00,WeatherDisplay:10.37,2013-05-08 10:12:00,
2013-05-08 03:17:00,51.9,49.4,30.04,SSW,194,1.1,1.1,91,0.00,CLR,,0.00,WeatherDisplay:10.37,2013-05-08 10:17:00,
2013-05-08 03:22:00,52.0,49.5,30.04,SE,146,3.0,3.0,91,0.00,CLR,,0.00,WeatherDisplay:10.37,2013-05-08 10:22:00,
2013-05-08 03:27:00,51.9,49.4,30.04,SSE,155,2.3,2.3,91,0.00,CLR,,0.00,WeatherDisplay:10.37,2013-05-08 10:27:00,
2013-05-08 03:32:00,51.8,49.3,30.05,SSE,156,0.0,0.0,91,0.00,CLR,,0.00,WeatherDisplay:10.37,2013-05-08 10:32:00,
2013-05-08 03:37:00,51.7,49.2,30.04,ESE,121,1.1,1.1,91,0.00,CLR,,0.00,WeatherDisplay:10.37,2013-05-08 10:37:00,
2013-05-08 03:42:00,51.7,49.2,30.05,SSE,167,2.3,2.3,91,0.00,CLR,,0.00,WeatherDisplay:10.37,2013-05-08 10:42:00,
2013-05-08 03:47:00,51.6,49.1,30.05,SE,129,1.1,1.1,91,0.00,CLR,,0.00,WeatherDisplay:10.37,2013-05-08 10:47:00,
2013-05-08 03:52:00,51.6,49.4,30.05,SSE,149,2.3,2.3,92,0.00,CLR,,0.00,WeatherDisplay:10.37,2013-05-08 10:52:00,
2013-05-08 03:57:00,51.6,49.4,30.05,SSE,150,2.3,2.3,92,0.00,CLR,,0.00,WeatherDisplay:10.37,2013-05-08 10:57:00,
2013-05-08 04:02:00,51.7,49.5,30.05,SSE,155,3.5,3.5,92,0.00,CLR,,0.00,WeatherDisplay:10.37,2013-05-08 11:02:00,
2013-05-08 04:07:00,51.8,49.5,30.05,SSW,200,2.3,2.3,92,0.00,CLR,,0.00,WeatherDisplay:10.37,2013-05-08 11:07:00,
2013-05-08 04:12:00,51.9,49.6,30.05,South,176,3.5,3.5,92,0.00,CLR,,0.00,WeatherDisplay:10.37,2013-05-08 11:12:00,
2013-05-08 04:17:00,52.0,49.7,30.05,SSE,164,2.0,2.0,92,0.00,CLR,,0.00,WeatherDisplay:10.37,2013-05-08 11:17:00,
2013-05-08 04:22:00,52.1,49.8,30.05,SE,127,1.1,1.1,92,0.00,CLR,,0.00,WeatherDisplay:10.37,2013-05-08 11:22:00,
2013-05-08 04:27:00,52.1,49.8,30.05,South,186,2.3,2.3,92,0.00,CLR,,0.00,WeatherDisplay:10.37,2013-05-08 11:27:00,
2013-05-08 04:32:00,52.1,49.8,30.05,SE,141,3.5,3.5,92,0.00,CLR,,0.00,WeatherDisplay:10.37,2013-05-08 11:32:00,
2013-05-08 04:37:00,52.1,49.8,30.05,South,172,4.0,4.0,92,0.00,CLR,,0.00,WeatherDisplay:10.37,2013-05-08 11:37:00,
2013-05-08 04:42:00,52.1,49.8,30.05,SE,139,3.5,3.5,92,0.00,CLR,,0.00,WeatherDisplay:10.37,2013-05-08 11:42:00,
2013-05-08 04:47:00,52.1,49.8,30.05,ESE,118,2.3,2.3,92,0.00,CLR,,0.00,WeatherDisplay:10.37,2013-05-08 11:47:00,
2013-05-08 04:52:00,52.1,49.8,30.05,ESE,117,1.1,1.1,92,0.00,CLR,,0.00,WeatherDisplay:10.37,2013-05-08 11:52:00,
2013-05-08 04:57:00,52.1,49.8,30.06,SE,124,2.3,2.3,92,0.00,CLR,,0.00,WeatherDisplay:10.37,2013-05-08 11:57:00,
2013-05-08 05:02:00,52.1,49.8,30.06,SSE,148,2.3,2.3,92,0.00,CLR,,0.00,WeatherDisplay:10.37,2013-05-08 12:02:00,
2013-05-08 05:07:00,52.2,49.9,30.06,SSE,150,2.3,2.3,92,0.00,CLR,,0.00,WeatherDisplay:10.37,2013-05-08 12:07:00,
2013-05-08 05:12:00,52.2,49.9,30.06,SE,127,1.1,1.1,92,0.00,CLR,,0.00,WeatherDisplay:10.37,2013-05-08 12:12:00,
2013-05-08 05:17:00,52.2,49.9,30.06,SSE,158,1.1,1.1,92,0.00,CLR,,0.00,WeatherDisplay:10.37,2013-05-08 12:17:00,
2013-05-08 05:22:00,52.2,49.9,30.06,SE,128,1.1,1.1,92,0.00,CLR,,0.00,WeatherDisplay:10.37,2013-05-08 12:22:00,
2013-05-08 05:27:00,52.3,49.8,30.06,ESE,105,1.0,1.0,91,0.00,CLR,,0.00,WeatherDisplay:10.37,2013-05-08 12:27:00,
2013-05-08 05:32:00,52.3,49.8,30.06,South,173,1.1,1.1,91,0.00,CLR,,0.00,WeatherDisplay:10.37,2013-05-08 12:32:00,
2013-05-08 05:37:00,52.3,49.8,30.06,SSE,159,1.0,0.0,91,0.00,CLR,,0.00,WeatherDisplay:10.37,2013-05-08 12:37:00,
2013-05-08 05:42:00,52.3,49.8,30.06,SSE,164,3.5,3.5,91,0.00,CLR,,0.00,WeatherDisplay:10.37,2013-05-08 12:42:00,
2013-05-08 05:47:00,52.4,49.8,30.06,SSE,155,2.3,2.3,91,0.00,CLR,,0.00,WeatherDisplay:10.37,2013-05-08 12:47:00,
2013-05-08 05:52:00,52.4,49.8,30.06,South,191,2.3,2.3,91,0.00,CLR,,0.00,WeatherDisplay:10.37,2013-05-08 12:52:00,
2013-05-08 05:57:00,52.5,49.9,30.06,SSE,160,2.3,0.0,91,0.00,CLR,,0.00,WeatherDisplay:10.37,2013-05-08 12:57:00,
2013-05-08 06:02:00,52.5,49.9,30.06,SSE,167,0.0,0.0,91,0.00,CLR,,0.00,WeatherDisplay:10.37,2013-05-08 13:02:00,
2013-05-08 06:07:00,52.5,49.9,30.07,ESE,110,1.1,1.1,91,0.00,CLR,,0.00,WeatherDisplay:10.37,2013-05-08 13:07:00,
2013-05-08 06:12:00,52.6,50.0,30.07,ESE,110,1.1,1.1,91,0.00,CLR,,0.00,WeatherDisplay:10.37,2013-05-08 13:12:00,
2013-05-08 06:17:00,52.7,50.1,30.07,SSW,197,2.3,2.3,91,0.00,CLR,,0.00,WeatherDisplay:10.37,2013-05-08 13:17:00,
2013-05-08 06:22:00,52.7,50.1,30.07,SE,146,1.1,1.1,91,0.00,CLR,,0.00,WeatherDisplay:10.37,2013-05-08 13:22:00,
2013-05-08 06:27:00,52.8,49.9,30.07,SSE,166,2.3,2.3,90,0.00,CLR,,0.00,WeatherDisplay:10.37,2013-05-08 13:27:00,
2013-05-08 06:32:00,52.8,49.9,30.08,SSE,162,1.1,1.1,90,0.00,CLR,,0.00,WeatherDisplay:10.37,2013-05-08 13:32:00,
2013-05-08 06:37:00,52.9,50.0,30.08,SSE,161,1.1,1.1,90,0.00,CLR,,0.00,WeatherDisplay:10.37,2013-05-08 13:37:00,
2013-05-08 06:42:00,52.9,50.0,30.08,SSE,162,0.0,0.0,90,0.00,CLR,,0.00,WeatherDisplay:10.37,2013-05-08 13:42:00,
2013-05-08 06:47:00,53.0,50.1,30.08,WSW,239,1.1,1.1,90,0.00,CLR,,0.00,WeatherDisplay:10.37,2013-05-08 13:47:00,
2013-05-08 06:52:00,53.1,50.2,30.08,SSE,166,0.0,0.0,90,0.00,CLR,,0.00,WeatherDisplay:10.37,2013-05-08 13:52:00,
2013-05-08 06:57:00,53.2,50.3,30.08,SSE,167,2.3,2.3,90,0.00,CLR,,0.00,WeatherDisplay:10.37,2013-05-08 13:57:00,
2013-05-08 07:02:00,53.3,50.4,30.08,SSE,166,2.3,2.3,90,0.00,CLR,,0.00,WeatherDisplay:10.37,2013-05-08 14:02:00,
2013-05-08 07:07:00,53.4,50.5,30.08,SSE,162,1.1,1.1,90,0.00,CLR,,0.00,WeatherDisplay:10.37,2013-05-08 14:07:00,
2013-05-08 07:12:00,53.4,50.2,30.09,SE,141,2.3,2.3,89,0.00,CLR,,0.00,WeatherDisplay:10.37,2013-05-08 14:12:00,
2013-05-08 07:17:00,53.4,50.2,30.09,SSE,159,2.3,2.3,89,0.00,CLR,,0.00,WeatherDisplay:10.37,2013-05-08 14:17:00,
2013-05-08 07:22:00,53.5,50.3,30.09,SSE,154,3.5,3.5,89,0.00,CLR,,0.00,WeatherDisplay:10.37,2013-05-08 14:22:00,
2013-05-08 07:27:00,53.6,50.4,30.09,SE,144,1.1,1.1,89,0.00,CLR,,0.00,WeatherDisplay:10.37,2013-05-08 14:27:00,
2013-05-08 07:32:00,53.7,50.5,30.09,SSE,149,3.5,3.5,89,0.00,CLR,,0.00,WeatherDisplay:10.37,2013-05-08 14:32:00,
2013-05-08 07:37:00,53.7,50.5,30.09,SE,142,2.3,2.3,89,0.00,CLR,,0.00,WeatherDisplay:10.37,2013-05-08 14:37:00,
2013-05-08 07:42:00,53.7,50.5,30.10,South,186,3.5,3.5,89,0.00,CLR,,0.00,WeatherDisplay:10.37,2013-05-08 14:42:00,
2013-05-08 07:47:00,53.7,50.5,30.09,SSE,154,3.5,3.5,89,0.00,CLR,,0.00,WeatherDisplay:10.37,2013-05-08 14:47:00,
2013-05-08 07:52:00,53.8,50.6,30.09,South,172,3.0,3.0,89,0.00,CLR,,0.00,WeatherDisplay:10.37,2013-05-08 14:52:00,
2013-05-08 07:57:00,53.8,50.6,30.09,SE,134,2.3,2.3,89,0.00,CLR,,0.00,WeatherDisplay:10.37,2013-05-08 14:57:00,
2013-05-08 08:02:00,53.9,50.7,30.10,ESE,122,3.5,3.5,89,0.00,CLR,,0.00,WeatherDisplay:10.37,2013-05-08 15:02:00,
2013-05-08 08:07:00,53.9,50.4,30.10,SE,127,3.5,3.5,88,0.00,CLR,,0.00,WeatherDisplay:10.37,2013-05-08 15:07:00,
2013-05-08 08:12:00,53.9,50.4,30.10,ESE,115,2.3,2.3,88,0.00,CLR,,0.00,WeatherDisplay:10.37,2013-05-08 15:12:00,
2013-05-08 08:17:00,54.0,50.5,30.11,ESE,115,3.5,3.5,88,0.00,CLR,,0.00,WeatherDisplay:10.37,2013-05-08 15:17:00,
2013-05-08 08:22:00,54.1,50.6,30.11,SSE,163,3.0,3.0,88,0.00,CLR,,0.00,WeatherDisplay:10.37,2013-05-08 15:22:00,
2013-05-08 08:27:00,54.3,50.8,30.11,SE,124,2.3,2.3,88,0.00,CLR,,0.00,WeatherDisplay:10.37,2013-05-08 15:27:00,
2013-05-08 08:32:00,54.4,50.6,30.11,SE,146,2.3,2.3,87,0.00,CLR,,0.00,WeatherDisplay:10.37,2013-05-08 15:32:00,
2013-05-08 08:37:00,54.5,50.7,30.11,SSE,152,2.3,2.3,87,0.00,CLR,,0.00,WeatherDisplay:10.37,2013-05-08 15:37:00,
2013-05-08 08:42:00,54.5,50.7,30.11,SSE,161,2.3,2.3,87,0.00,CLR,,0.00,WeatherDisplay:10.37,2013-05-08 15:42:00,
2013-05-08 08:47:00,54.5,50.7,30.11,SE,131,2.3,2.3,87,0.00,CLR,,0.00,WeatherDisplay:10.37,2013-05-08 15:47:00,
2013-05-08 08:52:00,54.6,50.8,30.11,ESE,112,3.5,3.5,87,0.00,CLR,,0.00,WeatherDisplay:10.37,2013-05-08 15:52:00,
2013-05-08 08:57:00,54.6,50.8,30.11,SSE,160,2.3,2.3,87,0.00,CLR,,0.00,WeatherDisplay:10.37,2013-05-08 15:57:00,
2013-05-08 09:02:00,54.8,51.0,30.11,SE,144,1.1,1.1,87,0.00,CLR,,0.00,WeatherDisplay:10.37,2013-05-08 16:02:00,
2013-05-08 09:07:00,55.0,50.9,30.11,SE,131,2.3,2.3,86,0.00,CLR,,0.00,WeatherDisplay:10.37,2013-05-08 16:07:00,
2013-05-08 09:12:00,55.2,51.1,30.11,ESE,115,2.3,2.3,86,0.00,CLR,,0.00,WeatherDisplay:10.37,2013-05-08 16:12:00,
2013-05-08 09:17:00,55.6,51.5,30.12,ESE,115,2.3,2.3,86,0.00,CLR,,0.00,WeatherDisplay:10.37,2013-05-08 16:17:00,
2013-05-08 09:22:00,55.7,51.3,30.12,SSE,165,2.3,2.3,85,0.00,CLR,,0.00,WeatherDisplay:10.37,2013-05-08 16:22:00,
2013-05-08 09:27:00,56.0,51.6,30.12,ESE,111,2.3,2.3,85,0.00,CLR,,0.00,WeatherDisplay:10.37,2013-05-08 16:27:00,
2013-05-08 09:32:00,56.2,51.4,30.12,ESE,118,2.3,2.3,84,0.00,CLR,,0.00,WeatherDisplay:10.37,2013-05-08 16:32:00,
2013-05-08 09:37:00,56.4,51.6,30.12,SSE,165,3.0,3.0,84,0.00,CLR,,0.00,WeatherDisplay:10.37,2013-05-08 16:37:00,
2013-05-08 09:42:00,56.7,51.6,30.12,SSE,165,5.8,5.8,83,0.00,CLR,,0.00,WeatherDisplay:10.37,2013-05-08 16:42:00,
2013-05-08 09:47:00,57.1,52.0,30.11,ESE,122,2.0,2.0,83,0.00,CLR,,0.00,WeatherDisplay:10.37,2013-05-08 16:47:00,
2013-05-08 09:52:00,57.4,51.6,30.12,SSW,207,2.3,2.3,81,0.00,CLR,,0.00,WeatherDisplay:10.37,2013-05-08 16:52:00,
2013-05-08 09:57:00,57.8,52.0,30.11,SSE,164,6.0,6.0,81,0.00,CLR,,0.00,WeatherDisplay:10.37,2013-05-08 16:57:00,
2013-05-08 10:02:00,57.9,52.1,30.11,SE,128,1.1,1.1,81,0.00,CLR,,0.00,WeatherDisplay:10.37,2013-05-08 17:02:00,
2013-05-08 10:07:00,58.1,52.3,30.11,SSW,193,1.1,1.1,81,0.00,CLR,,0.00,WeatherDisplay:10.37,2013-05-08 17:07:00,
2013-05-08 10:12:00,58.0,51.9,30.11,ENE,75,3.5,3.5,80,0.00,CLR,,0.00,WeatherDisplay:10.37,2013-05-08 17:12:00,
2013-05-08 10:17:00,58.3,52.2,30.11,South,177,3.5,3.5,80,0.00,CLR,,0.00,WeatherDisplay:10.37,2013-05-08 17:17:00,
2013-05-08 10:22:00,58.7,51.9,30.11,South,186,3.5,3.5,78,0.00,CLR,,0.00,WeatherDisplay:10.37,2013-05-08 17:22:00,
2013-05-08 10:27:00,59.0,52.1,30.12,South,173,2.3,0.0,78,0.00,CLR,,0.00,WeatherDisplay:10.37,2013-05-08 17:27:00,
2013-05-08 10:32:00,59.8,52.2,30.11,South,176,3.5,3.5,76,0.00,CLR,,0.00,WeatherDisplay:10.37,2013-05-08 17:32:00,
2013-05-08 10:37:00,60.0,52.8,30.11,South,180,2.0,2.0,77,0.00,CLR,,0.00,WeatherDisplay:10.37,2013-05-08 17:37:00,
2013-05-08 10:42:00,60.2,52.2,30.12,SSW,208,2.3,2.3,75,0.00,CLR,,0.00,WeatherDisplay:10.37,2013-05-08 17:42:00,
2013-05-08 10:47:00,60.7,52.4,30.12,SSE,150,1.1,1.1,74,0.00,CLR,,0.00,WeatherDisplay:10.37,2013-05-08 17:47:00,
2013-05-08 10:52:00,60.8,52.8,30.12,NW,311,2.3,0.0,75,0.00,CLR,,0.00,WeatherDisplay:10.37,2013-05-08 17:52:00,
2013-05-08 10:57:00,61.1,52.7,30.12,NNE,28,1.1,1.1,74,0.00,CLR,,0.00,WeatherDisplay:10.37,2013-05-08 17:57:00,
2013-05-08 11:02:00,61.4,52.7,30.12,South,177,1.1,1.1,73,0.00,CLR,,0.00,WeatherDisplay:10.37,2013-05-08 18:02:00,
2013-05-08 11:07:00,62.1,53.0,30.12,SSW,203,2.3,2.3,72,0.00,CLR,,0.00,WeatherDisplay:10.37,2013-05-08 18:07:00,
2013-05-08 11:12:00,62.4,52.9,30.12,SW,226,3.0,3.0,71,0.00,CLR,,0.00,WeatherDisplay:10.37,2013-05-08 18:12:00,
2013-05-08 11:18:00,62.4,52.9,30.12,SSW,203,2.3,2.3,71,0.00,CLR,,0.00,WeatherDisplay:10.37,2013-05-08 18:18:00,
2013-05-08 11:23:00,62.6,52.7,30.12,South,174,4.6,4.6,70,0.00,CLR,,0.00,WeatherDisplay:10.37,2013-05-08 18:23:00,
2013-05-08 11:28:00,63.0,53.1,30.12,SSE,164,2.3,2.3,70,0.00,CLR,,0.00,WeatherDisplay:10.37,2013-05-08 18:28:00,
2013-05-08 11:33:00,63.5,53.5,30.12,West,274,2.3,2.3,70,0.00,CLR,,0.00,WeatherDisplay:10.37,2013-05-08 18:33:00,
2013-05-08 11:38:00,64.0,53.6,30.12,ESE,107,3.5,3.5,69,0.00,CLR,,0.00,WeatherDisplay:10.37,2013-05-08 18:38:00,
2013-05-08 11:43:00,64.3,53.5,30.12,SSW,201,3.5,3.5,68,0.00,CLR,,0.00,WeatherDisplay:10.37,2013-05-08 18:43:00,
2013-05-08 11:48:00,65.2,53.1,30.12,WSW,249,2.3,2.3,65,0.00,CLR,,0.00,WeatherDisplay:10.37,2013-05-08 18:48:00,
2013-05-08 11:53:00,65.4,53.3,30.12,SSE,155,3.5,3.5,65,0.00,CLR,,0.00,WeatherDisplay:10.37,2013-05-08 18:53:00,
2013-05-08 11:58:00,65.2,53.6,30.12,ESE,122,2.3,2.3,66,0.00,CLR,,0.00,WeatherDisplay:10.37,2013-05-08 18:58:00,
2013-05-08 12:03:00,65.7,53.6,30.11,WSW,244,3.5,3.5,65,0.00,CLR,,0.00,WeatherDisplay:10.37,2013-05-08 19:03:00,
2013-05-08 12:08:00,66.7,53.7,30.11,SSE,150,5.0,5.0,63,0.00,CLR,,0.00,WeatherDisplay:10.37,2013-05-08 19:08:00,
2013-05-08 12:13:00,66.5,53.9,30.11,West,259,5.8,5.8,64,0.00,CLR,,0.00,WeatherDisplay:10.37,2013-05-08 19:13:00,
2013-05-08 12:18:00,66.8,53.8,30.11,East,95,3.5,3.5,63,0.00,CLR,,0.00,WeatherDisplay:10.37,2013-05-08 19:18:00,
2013-05-08 12:23:00,66.9,54.7,30.10,SE,131,3.5,3.5,65,0.00,CLR,,0.00,WeatherDisplay:10.37,2013-05-08 19:23:00,
2013-05-08 12:28:00,67.1,54.1,30.10,South,187,10.4,10.4,63,0.00,CLR,,0.00,WeatherDisplay:10.37,2013-05-08 19:28:00,
2013-05-08 12:33:00,67.2,54.2,30.10,ENE,77,4.0,4.0,63,0.00,CLR,,0.00,WeatherDisplay:10.37,2013-05-08 19:33:00,
2013-05-08 12:38:00,67.1,54.1,30.09,ESE,115,4.6,4.6,63,0.00,CLR,,0.00,WeatherDisplay:10.37,2013-05-08 19:38:00,
2013-05-08 12:43:00,67.1,54.1,30.09,ESE,108,6.9,6.9,63,0.00,CLR,,0.00,WeatherDisplay:10.37,2013-05-08 19:43:00,
2013-05-08 12:48:00,67.2,54.2,30.09,SSW,212,3.5,3.5,63,0.00,CLR,,0.00,WeatherDisplay:10.37,2013-05-08 19:48:00,
2013-05-08 12:53:00,67.1,54.1,30.09,SE,126,3.5,3.5,63,0.00,CLR,,0.00,WeatherDisplay:10.37,2013-05-08 19:53:00,
2013-05-08 12:58:00,67.5,54.0,30.09,SSE,163,5.8,5.8,62,0.00,CLR,,0.00,WeatherDisplay:10.37,2013-05-08 19:58:00,
2013-05-08 13:03:00,67.4,54.4,30.09,SSE,158,3.5,3.5,63,0.00,CLR,,0.00,WeatherDisplay:10.37,2013-05-08 20:03:00,
2013-05-08 13:08:00,68.2,54.2,30.09,SW,222,4.6,4.6,61,0.00,CLR,,0.00,WeatherDisplay:10.37,2013-05-08 20:08:00,
2013-05-08 13:13:00,68.6,55.5,30.09,East,91,5.0,5.0,63,0.00,CLR,,0.00,WeatherDisplay:10.37,2013-05-08 20:13:00,
2013-05-08 13:18:00,68.2,54.7,30.09,ESE,119,5.8,5.8,62,0.00,CLR,,0.00,WeatherDisplay:10.37,2013-05-08 20:18:00,
2013-05-08 13:23:00,68.3,54.8,30.09,SE,128,6.9,6.9,62,0.00,CLR,,0.00,WeatherDisplay:10.37,2013-05-08 20:23:00,
2013-05-08 13:28:00,68.5,55.0,30.09,SE,134,4.6,4.6,62,0.00,CLR,,0.00,WeatherDisplay:10.37,2013-05-08 20:28:00,
2013-05-08 13:33:00,69.0,55.0,30.08,South,186,4.6,4.6,61,0.00,CLR,,0.00,WeatherDisplay:10.37,2013-05-08 20:33:00,
2013-05-08 13:38:00,69.8,55.3,30.08,SSW,211,3.5,3.5,60,0.00,CLR,,0.00,WeatherDisplay:10.37,2013-05-08 20:38:00,
2013-05-08 13:43:00,70.5,55.0,30.08,SE,129,5.8,5.8,58,0.00,CLR,,0.00,WeatherDisplay:10.37,2013-05-08 20:43:00,
2013-05-08 13:48:00,70.0,55.0,30.08,ESE,117,5.8,5.8,59,0.00,CLR,,0.00,WeatherDisplay:10.37,2013-05-08 20:48:00,
2013-05-08 13:53:00,69.5,55.0,30.08,ESE,122,3.5,3.5,60,0.00,CLR,,0.00,WeatherDisplay:10.37,2013-05-08 20:53:00,
2013-05-08 13:58:00,69.6,55.1,30.08,SE,129,5.8,5.8,60,0.00,CLR,,0.00,WeatherDisplay:10.37,2013-05-08 20:58:00,
2013-05-08 14:03:00,69.7,55.2,30.07,SSW,197,4.0,4.0,60,0.00,CLR,,0.00,WeatherDisplay:10.37,2013-05-08 21:03:00,
2013-05-08 14:08:00,70.5,55.0,30.08,SSE,167,9.2,9.2,58,0.00,CLR,,0.00,WeatherDisplay:10.37,2013-05-08 21:08:00,
2013-05-08 14:13:00,70.3,54.8,30.07,SE,131,4.6,4.6,58,0.00,CLR,,0.00,WeatherDisplay:10.37,2013-05-08 21:13:00,
2013-05-08 14:18:00,70.3,55.8,30.07,SE,139,9.0,9.0,60,0.00,CLR,,0.00,WeatherDisplay:10.37,2013-05-08 21:18:00,
2013-05-08 14:23:00,70.5,55.0,30.07,SE,130,8.1,8.1,58,0.00,CLR,,0.00,WeatherDisplay:10.37,2013-05-08 21:23:00,
2013-05-08 14:28:00,70.6,55.6,30.07,ESE,108,5.0,5.0,59,0.00,CLR,,0.00,WeatherDisplay:10.37,2013-05-08 21:28:00,
2013-05-08 14:33:00,70.9,55.4,30.07,SSE,149,4.6,4.6,58,0.00,CLR,,0.00,WeatherDisplay:10.37,2013-05-08 21:33:00,
2013-05-08 14:38:00,71.1,55.1,30.07,SSE,151,8.1,8.1,57,0.00,CLR,,0.00,WeatherDisplay:10.37,2013-05-08 21:38:00,
2013-05-08 14:43:00,70.9,55.4,30.07,East,91,8.1,8.1,58,0.00,CLR,,0.00,WeatherDisplay:10.37,2013-05-08 21:43:00,
2013-05-08 14:48:00,70.7,55.2,30.07,ESE,113,6.9,6.9,58,0.00,CLR,,0.00,WeatherDisplay:10.37,2013-05-08 21:48:00,
2013-05-08 14:53:00,70.8,55.3,30.07,SE,138,5.8,5.8,58,0.00,CLR,,0.00,WeatherDisplay:10.37,2013-05-08 21:53:00,
2013-05-08 14:58:00,71.3,55.8,30.06,SE,139,3.5,3.5,58,0.00,CLR,,0.00,WeatherDisplay:10.37,2013-05-08 21:58:00,
2013-05-08 15:03:00,71.8,55.3,30.06,SSE,148,9.2,9.2,56,0.00,CLR,,0.00,WeatherDisplay:10.37,2013-05-08 22:03:00,
2013-05-08 15:08:00,71.9,55.3,30.06,SSE,154,5.8,5.8,56,0.00,CLR,,0.00,WeatherDisplay:10.37,2013-05-08 22:08:00,
2013-05-08 15:13:00,72.4,55.3,30.06,SE,132,5.8,5.8,55,0.00,CLR,,0.00,WeatherDisplay:10.37,2013-05-08 22:13:00,
2013-05-08 15:18:00,71.9,55.8,30.06,SE,124,8.1,8.1,57,0.00,CLR,,0.00,WeatherDisplay:10.37,2013-05-08 22:18:00,
2013-05-08 15:23:00,72.0,55.4,30.05,SSE,151,5.8,5.8,56,0.00,CLR,,0.00,WeatherDisplay:10.37,2013-05-08 22:23:00,
2013-05-08 15:28:00,72.0,55.4,30.05,SE,145,5.8,5.8,56,0.00,CLR,,0.00,WeatherDisplay:10.37,2013-05-08 22:28:00,
2013-05-08 15:33:00,72.6,55.5,30.05,SE,129,10.4,10.4,55,0.00,CLR,,0.00,WeatherDisplay:10.37,2013-05-08 22:33:00,
2013-05-08 15:38:00,72.7,55.6,30.05,East,99,3.5,3.5,55,0.00,CLR,,0.00,WeatherDisplay:10.37,2013-05-08 22:38:00,
2013-05-08 15:43:00,72.6,55.5,30.05,SE,146,3.5,3.5,55,0.00,CLR,,0.00,WeatherDisplay:10.37,2013-05-08 22:43:00,
2013-05-08 15:48:00,72.2,55.6,30.05,SE,133,3.5,3.5,56,0.00,CLR,,0.00,WeatherDisplay:10.37,2013-05-08 22:48:00,
2013-05-08 15:53:00,71.9,55.3,30.05,ESE,122,6.9,6.9,56,0.00,CLR,,0.00,WeatherDisplay:10.37,2013-05-08 22:53:00,
2013-05-08 15:58:00,71.8,55.7,30.04,SE,132,3.5,3.5,57,0.00,CLR,,0.00,WeatherDisplay:10.37,2013-05-08 22:58:00,
2013-05-08 16:03:00,72.1,55.5,30.04,ESE,110,6.0,6.0,56,0.00,CLR,,0.00,WeatherDisplay:10.37,2013-05-08 23:03:00,
2013-05-08 16:08:00,71.6,55.1,30.04,SE,126,6.9,6.9,56,0.00,CLR,,0.00,WeatherDisplay:10.37,2013-05-08 23:08:00,
2013-05-08 16:13:00,71.0,55.0,30.04,SE,136,4.0,4.1,57,0.00,CLR,,0.00,WeatherDisplay:10.37,2013-05-08 23:13:00,
2013-05-08 16:18:00,70.9,54.9,30.04,SE,136,5.8,5.8,57,0.00,CLR,,0.00,WeatherDisplay:10.37,2013-05-08 23:18:00,
2013-05-08 16:23:00,70.9,55.4,30.04,SE,142,4.0,4.0,58,0.00,CLR,,0.00,WeatherDisplay:10.37,2013-05-08 23:23:00,
2013-05-08 16:28:00,70.8,55.3,30.04,SSE,154,6.0,6.0,58,0.00,CLR,,0.00,WeatherDisplay:10.37,2013-05-08 23:28:00,
2013-05-08 16:33:00,70.6,55.1,30.04,SE,124,4.6,4.6,58,0.00,CLR,,0.00,WeatherDisplay:10.37,2013-05-08 23:33:00,
2013-05-08 16:38:00,69.8,54.8,30.04,ESE,111,9.2,9.2,59,0.00,CLR,,0.00,WeatherDisplay:10.37,2013-05-08 23:38:00,
2013-05-08 16:43:00,69.6,55.1,30.04,ESE,110,8.1,8.1,60,0.00,CLR,,0.00,WeatherDisplay:10.37,2013-05-08 23:43:00,
2013-05-08 16:48:00,69.2,54.7,30.04,SSE,163,9.0,9.0,60,0.00,CLR,,0.00,WeatherDisplay:10.37,2013-05-08 23:48:00,
2013-05-08 16:53:00,69.0,55.0,30.04,South,173,5.8,5.8,61,0.00,CLR,,0.00,WeatherDisplay:10.37,2013-05-08 23:53:00,
2013-05-08 16:58:00,69.0,55.0,30.04,SE,142,9.0,9.0,61,0.00,CLR,,0.00,WeatherDisplay:10.37,2013-05-08 23:58:00,
2013-05-08 17:03:00,69.0,55.0,30.04,SE,128,5.8,5.8,61,0.00,CLR,,0.00,WeatherDisplay:10.37,2013-05-09 00:03:00,
2013-05-08 17:08:00,68.6,54.6,30.04,SSE,156,5.8,5.8,61,0.00,CLR,,0.00,WeatherDisplay:10.37,2013-05-09 00:08:00,
2013-05-08 17:13:00,68.1,54.1,30.04,SE,131,8.1,8.1,61,0.00,CLR,,0.00,WeatherDisplay:10.37,2013-05-09 00:13:00,
2013-05-08 17:18:00,67.7,54.2,30.04,SE,124,10.4,10.4,62,0.00,CLR,,0.00,WeatherDisplay:10.37,2013-05-09 00:18:00,
2013-05-08 17:23:00,67.5,54.0,30.04,ESE,116,6.9,6.9,62,0.00,CLR,,0.00,WeatherDisplay:10.37,2013-05-09 00:23:00,
2013-05-08 17:28:00,67.3,54.3,30.04,SE,131,5.8,5.8,63,0.00,CLR,,0.00,WeatherDisplay:10.37,2013-05-09 00:28:00,
2013-05-08 17:33:00,67.2,53.7,30.04,SSE,149,8.0,8.0,62,0.00,CLR,,0.00,WeatherDisplay:10.37,2013-05-09 00:33:00,
2013-05-08 17:38:00,67.1,54.1,30.04,SE,146,8.1,8.1,63,0.00,CLR,,0.00,WeatherDisplay:10.37,2013-05-09 00:38:00,
2013-05-08 17:43:00,66.9,53.9,30.04,SE,146,8.1,8.1,63,0.00,CLR,,0.00,WeatherDisplay:10.37,2013-05-09 00:43:00,
2013-05-08 17:48:00,66.8,53.8,30.04,SSE,165,4.0,4.0,63,0.00,CLR,,0.00,WeatherDisplay:10.37,2013-05-09 00:48:00,
2013-05-08 17:53:00,66.6,53.6,30.05,SSE,159,9.2,9.2,63,0.00,CLR,,0.00,WeatherDisplay:10.37,2013-05-09 00:53:00,
2013-05-08 17:58:00,66.4,53.8,30.05,SSE,163,4.6,4.6,64,0.00,CLR,,0.00,WeatherDisplay:10.37,2013-05-09 00:58:00,
2013-05-08 18:03:00,66.4,53.4,30.04,SE,136,12.7,12.7,63,0.00,CLR,,0.00,WeatherDisplay:10.37,2013-05-09 01:03:00,
2013-05-08 18:08:00,66.1,53.6,30.04,South,170,9.2,9.2,64,0.00,CLR,,0.00,WeatherDisplay:10.37,2013-05-09 01:08:00,
2013-05-08 18:13:00,66.3,53.8,30.05,SSE,161,5.0,5.0,64,0.00,CLR,,0.00,WeatherDisplay:10.37,2013-05-09 01:13:00,
2013-05-08 18:18:00,65.9,53.4,30.05,SSW,194,11.5,11.5,64,0.00,CLR,,0.00,WeatherDisplay:10.37,2013-05-09 01:18:00,
2013-05-08 18:23:00,65.5,53.4,30.05,South,173,12.0,12.0,65,0.00,CLR,,0.00,WeatherDisplay:10.37,2013-05-09 01:23:00,
2013-05-08 18:28:00,65.1,53.0,30.05,SSE,150,8.1,8.1,65,0.00,CLR,,0.00,WeatherDisplay:10.37,2013-05-09 01:28:00,
2013-05-08 18:33:00,64.7,53.1,30.05,SSW,201,8.1,8.1,66,0.00,CLR,,0.00,WeatherDisplay:10.37,2013-05-09 01:33:00,
2013-05-08 18:38:00,64.5,52.9,30.05,SSE,157,6.9,6.9,66,0.00,CLR,,0.00,WeatherDisplay:10.37,2013-05-09 01:38:00,
2013-05-08 18:43:00,64.1,52.9,30.05,SE,131,6.0,6.0,67,0.00,CLR,,0.00,WeatherDisplay:10.37,2013-05-09 01:43:00,
2013-05-08 18:48:00,63.7,52.5,30.05,SE,127,8.1,8.1,67,0.00,CLR,,0.00,WeatherDisplay:10.37,2013-05-09 01:48:00,
2013-05-08 18:53:00,63.3,52.6,30.05,SE,139,5.8,5.8,68,0.00,CLR,,0.00,WeatherDisplay:10.37,2013-05-09 01:53:00,
2013-05-08 18:58:00,62.9,52.6,30.05,SE,124,6.9,6.9,69,0.00,CLR,,0.00,WeatherDisplay:10.37,2013-05-09 01:58:00,
2013-05-08 19:03:00,62.6,52.3,30.05,SE,129,6.9,6.9,69,0.00,CLR,,0.00,WeatherDisplay:10.37,2013-05-09 02:03:00,
2013-05-08 19:08:00,62.2,52.3,30.06,SE,146,2.3,2.3,70,0.00,CLR,,0.00,WeatherDisplay:10.37,2013-05-09 02:08:00,
2013-05-08 19:13:00,61.8,51.9,30.06,SE,140,5.8,5.8,70,0.00,CLR,,0.00,WeatherDisplay:10.37,2013-05-09 02:13:00,
2013-05-08 19:18:00,61.3,51.8,30.06,SSE,167,6.0,6.0,71,0.00,CLR,,0.00,WeatherDisplay:10.37,2013-05-09 02:18:00,
2013-05-08 19:23:00,60.9,51.4,30.06,SSE,155,6.0,6.0,71,0.00,CLR,,0.00,WeatherDisplay:10.37,2013-05-09 02:23:00,
2013-05-08 19:28:00,60.6,51.5,30.06,SE,129,6.9,6.9,72,0.00,CLR,,0.00,WeatherDisplay:10.37,2013-05-09 02:28:00,
2013-05-08 19:33:00,60.4,51.3,30.06,SE,138,5.8,5.8,72,0.00,CLR,,0.00,WeatherDisplay:10.37,2013-05-09 02:33:00,
2013-05-08 19:38:00,60.2,51.1,30.07,South,188,10.4,10.4,72,0.00,CLR,,0.00,WeatherDisplay:10.37,2013-05-09 02:38:00,
2013-05-08 19:43:00,59.8,51.1,30.07,SE,133,5.8,5.8,73,0.00,CLR,,0.00,WeatherDisplay:10.37,2013-05-09 02:43:00,
2013-05-08 19:48:00,59.5,51.2,30.07,South,186,5.0,5.0,74,0.00,CLR,,0.00,WeatherDisplay:10.37,2013-05-09 02:48:00,
2013-05-08 19:53:00,59.0,50.7,30.08,SSE,153,6.9,6.9,74,0.00,CLR,,0.00,WeatherDisplay:10.37,2013-05-09 02:53:00,
2013-05-08 19:58:00,58.6,50.7,30.08,South,169,6.0,6.0,75,0.00,CLR,,0.00,WeatherDisplay:10.37,2013-05-09 02:58:00,
2013-05-08 20:03:00,58.2,50.7,30.08,South,173,6.0,6.0,76,0.00,CLR,,0.00,WeatherDisplay:10.37,2013-05-09 03:03:00,
2013-05-08 20:08:00,57.9,50.4,30.08,SE,139,5.8,5.8,76,0.00,CLR,,0.00,WeatherDisplay:10.37,2013-05-09 03:08:00,
2013-05-08 20:13:00,57.5,50.3,30.08,SSE,151,5.8,5.8,77,0.00,CLR,,0.00,WeatherDisplay:10.37,2013-05-09 03:13:00,
2013-05-08 20:18:00,57.3,50.1,30.09,SSE,155,10.4,10.4,77,0.00,CLR,,0.00,WeatherDisplay:10.37,2013-05-09 03:18:00,
2013-05-08 20:23:00,57.1,50.0,30.09,SE,134,5.8,5.8,77,0.00,CLR,,0.00,WeatherDisplay:10.37,2013-05-09 03:23:00,
2013-05-08 20:28:00,56.8,50.0,30.09,South,184,4.6,4.6,78,0.00,CLR,,0.00,WeatherDisplay:10.37,2013-05-09 03:28:00,
2013-05-08 20:33:00,56.7,49.9,30.09,SE,146,10.4,10.4,78,0.00,CLR,,0.00,WeatherDisplay:10.37,2013-05-09 03:33:00,
2013-05-08 20:38:00,56.5,50.1,30.09,South,170,8.1,8.1,79,0.00,CLR,,0.00,WeatherDisplay:10.37,2013-05-09 03:38:00,
2013-05-08 20:43:00,56.4,50.0,30.09,SE,146,9.2,9.2,79,0.00,CLR,,0.00,WeatherDisplay:10.37,2013-05-09 03:43:00,
2013-05-08 20:48:00,56.3,49.9,30.10,South,180,5.8,5.8,79,0.00,CLR,,0.00,WeatherDisplay:10.37,2013-05-09 03:48:00,
2013-05-08 20:53:00,56.2,49.8,30.10,SE,139,5.8,5.8,79,0.00,CLR,,0.00,WeatherDisplay:10.37,2013-05-09 03:53:00,
2013-05-08 20:58:00,56.1,49.7,30.10,SE,131,3.5,3.5,79,0.00,CLR,,0.00,WeatherDisplay:10.37,2013-05-09 03:58:00,
2013-05-08 21:01:00,56.1,49.7,30.10,SSE,162,3.5,3.5,79,0.00,CLR,,0.00,WeatherDisplay:10.37,2013-05-09 04:01:00,
2013-05-08 21:02:00,56.1,49.7,30.10,SE,138,6.9,6.9,79,0.00,CLR,,0.00,WeatherDisplay:10.37,2013-05-09 04:02:00,
2013-05-08 21:04:00,56.0,49.6,30.10,SE,124,4.0,4.0,79,0.00,CLR,,0.00,WeatherDisplay:10.37,2013-05-09 04:04:00,
2013-05-08 21:05:00,56.0,49.6,30.10,SE,135,4.6,4.6,79,0.00,CLR,,0.00,WeatherDisplay:10.37,2013-05-09 04:05:00,
2013-05-08 21:10:00,55.9,49.8,30.10,SSE,148,5.8,5.8,80,0.00,CLR,,0.00,WeatherDisplay:10.37,2013-05-09 04:10:00,
2013-05-08 21:15:00,55.8,49.7,30.10,SE,139,1.1,1.1,80,0.00,CLR,,0.00,WeatherDisplay:10.37,2013-05-09 04:15:00,
2013-05-08 21:20:00,55.7,49.6,30.10,SSE,154,3.5,3.5,80,0.00,CLR,,0.00,WeatherDisplay:10.37,2013-05-09 04:20:00,
2013-05-08 21:25:00,55.5,49.4,30.10,South,183,5.8,5.8,80,0.00,CLR,,0.00,WeatherDisplay:10.37,2013-05-09 04:25:00,
2013-05-08 21:30:00,55.4,49.3,30.11,SE,142,4.6,4.6,80,0.00,CLR,,0.00,WeatherDisplay:10.37,2013-05-09 04:30:00,
2013-05-08 21:35:00,55.2,49.5,30.11,SE,136,4.6,4.6,81,0.00,CLR,,0.00,WeatherDisplay:10.37,2013-05-09 04:35:00,
2013-05-08 21:40:00,54.9,49.2,30.11,SSE,162,3.5,3.5,81,0.00,CLR,,0.00,WeatherDisplay:10.37,2013-05-09 04:40:00,
2013-05-08 21:45:00,54.7,49.0,30.11,SSE,164,5.8,5.8,81,0.00,CLR,,0.00,WeatherDisplay:10.37,2013-05-09 04:45:00,
2013-05-08 21:50:00,54.6,49.2,30.11,SSE,167,5.8,5.8,82,0.00,CLR,,0.00,WeatherDisplay:10.37,2013-05-09 04:50:00,
2013-05-08 21:55:00,54.4,49.0,30.12,SSE,168,4.6,4.6,82,0.00,CLR,,0.00,WeatherDisplay:10.37,2013-05-09 04:55:00,
2013-05-08 22:00:00,54.2,49.1,30.12,SSE,150,4.6,4.6,83,0.00,CLR,,0.00,WeatherDisplay:10.37,2013-05-09 05:00:00,
2013-05-08 22:05:00,54.0,49.0,30.12,SE,146,2.3,2.3,83,0.00,CLR,,0.00,WeatherDisplay:10.37,2013-05-09 05:05:00,
2013-05-08 22:10:00,53.9,48.9,30.12,ESE,110,4.6,4.6,83,0.00,CLR,,0.00,WeatherDisplay:10.37,2013-05-09 05:10:00,
2013-05-08 22:15:00,53.8,49.1,30.12,SE,146,4.6,4.6,84,0.00,CLR,,0.00,WeatherDisplay:10.37,2013-05-09 05:15:00,
2013-05-08 22:20:00,53.7,49.0,30.12,SE,130,3.5,3.5,84,0.00,CLR,,0.00,WeatherDisplay:10.37,2013-05-09 05:20:00,
2013-05-08 22:25:00,53.6,48.9,30.13,SE,134,4.6,4.6,84,0.00,CLR,,0.00,WeatherDisplay:10.37,2013-05-09 05:25:00,
2013-05-08 22:30:00,53.5,48.8,30.12,South,174,6.9,6.9,84,0.00,CLR,,0.00,WeatherDisplay:10.37,2013-05-09 05:30:00,
2013-05-08 22:35:00,53.4,48.7,30.12,South,183,4.6,4.6,84,0.00,CLR,,0.00,WeatherDisplay:10.37,2013-05-09 05:35:00,
2013-05-08 22:40:00,53.4,48.7,30.12,SSE,156,4.6,4.6,84,0.00,CLR,,0.00,WeatherDisplay:10.37,2013-05-09 05:40:00,
2013-05-08 22:45:00,53.3,48.9,30.12,SE,139,5.8,5.8,85,0.00,CLR,,0.00,WeatherDisplay:10.37,2013-05-09 05:45:00,
2013-05-08 22:50:00,53.2,48.8,30.12,SE,143,4.0,4.0,85,0.00,CLR,,0.00,WeatherDisplay:10.37,2013-05-09 05:50:00,
2013-05-08 22:55:00,53.2,48.8,30.12,SSE,161,5.8,5.8,85,0.00,CLR,,0.00,WeatherDisplay:10.37,2013-05-09 05:55:00,
2013-05-08 23:00:00,53.1,48.7,30.12,SSE,160,2.3,2.3,85,0.00,CLR,,0.00,WeatherDisplay:10.37,2013-05-09 06:00:00,
2013-05-08 23:05:00,53.0,48.6,30.13,South,174,3.5,3.5,85,0.00,CLR,,0.00,WeatherDisplay:10.37,2013-05-09 06:05:00,
2013-05-08 23:10:00,52.9,48.8,30.13,SSE,155,3.5,3.5,86,0.00,CLR,,0.00,WeatherDisplay:10.37,2013-05-09 06:10:00,
2013-05-08 23:15:00,52.8,48.7,30.13,SE,139,3.5,3.5,86,0.00,CLR,,0.00,WeatherDisplay:10.37,2013-05-09 06:15:00,
2013-05-08 23:20:00,52.8,48.7,30.12,SSE,163,5.8,5.8,86,0.00,CLR,,0.00,WeatherDisplay:10.37,2013-05-09 06:20:00,
2013-05-08 23:25:00,52.8,48.7,30.12,SE,141,3.5,3.5,86,0.00,CLR,,0.00,WeatherDisplay:10.37,2013-05-09 06:25:00,
2013-05-08 23:30:00,52.7,48.6,30.12,SSE,155,4.6,4.6,86,0.00,CLR,,0.00,WeatherDisplay:10.37,2013-05-09 06:30:00,
2013-05-08 23:35:00,52.6,48.5,30.12,SSW,198,4.6,4.6,86,0.00,CLR,,0.00,WeatherDisplay:10.37,2013-05-09 06:35:00,
2013-05-08 23:40:00,52.5,48.4,30.12,SE,129,3.5,3.5,86,0.00,CLR,,0.00,WeatherDisplay:10.37,2013-05-09 06:40:00,
2013-05-08 23:45:00,52.5,48.4,30.12,South,173,2.3,2.3,86,0.00,CLR,,0.00,WeatherDisplay:10.37,2013-05-09 06:45:00,
2013-05-08 23:50:00,52.3,48.5,30.13,SSE,148,2.3,2.3,87,0.00,CLR,,0.00,WeatherDisplay:10.37,2013-05-09 06:50:00,
2013-05-08 23:55:00,52.2,48.4,30.13,SSE,156,3.5,3.5,87,0.00,CLR,,0.00,WeatherDisplay:10.37,2013-05-09 06:55:00,